Location: Iwkowa
(49.8210°N, 20.5761°E)
Time: 21:12:45
(UTC+01:00)

ISS - Pass Details

Date: 30 January 2019
Orbit: 403 x 411 km, 51.6° (Epoch: 23 February)

Event Time Altitude Azimuth Distance (km) Brightness Sun altitude
Rises 17:23:41 0° 256° (WSW) 2,330 2.5 -9.1°
Reaches altitude 10° 17:25:46 10° 258° (WSW) 1,472 0.7 -9.4°
Maximum altitude 17:29:04 80° 346° (NNW) 421 -3.8 -9.9°
Enters shadow 17:31:38 16° 73° (ENE) 1,174 -2.2 -10.3°
